,,PA_Meas_PMT16A,,PR_Meas_QMR101_102,,RH_Meas_QMH101,,SR_Meas_QMS101,,TA_Meas_QMH101,,GenWind,,GenWind,
time,status,PA,status,PR,status,RH,status,SR,status,TA,status,DirAvg,status,SpdAvg,
2013-05-04, 00:00:04,VALID,917.111,VALID,0,VALID,97.1986,VALID,0,VALID,20.8145,VALID,351,VALID,0,
2013-05-04, 00:01:04,VALID,917.113,VALID,0,VALID,97.1986,VALID,0,VALID,20.8356,VALID,351,VALID,0,
2013-05-04, 00:02:04,VALID,917.105,VALID,0,VALID,97.1986,VALID,0,VALID,20.834,VALID,351,VALID,0,
2013-05-04, 00:03:04,VALID,917.127,VALID,0,VALID,97.2062,VALID,0,VALID,20.834,VALID,339,VALID,0,
2013-05-04, 00:04:04,VALID,917.12,VALID,0,VALID,97.1909,VALID,0,VALID,20.8145,VALID,334,VALID,0,
2013-05-04, 00:05:04,VALID,917.123,VALID,0,VALID,97.1986,VALID,0,VALID,20.834,VALID,353,VALID,0,
2013-05-04, 00:06:04,VALID,917.126,VALID,0,VALID,97.2214,VALID,0,VALID,20.834,VALID,353,VALID,0,
2013-05-04, 00:07:04,VALID,917.12,VALID,0,VALID,97.1833,VALID,0,VALID,20.8519,VALID,353,VALID,0,
2013-05-04, 00:08:04,VALID,917.14,VALID,0,VALID,97.1986,VALID,0,VALID,20.8925,VALID,353,VALID,0,
2013-05-04, 00:09:04,VALID,917.158,VALID,0,VALID,97.1986,VALID,0,VALID,20.8925,VALID,353,VALID,0,
2013-05-04, 00:10:04,VALID,917.147,VALID,0,VALID,97.1986,VALID,0,VALID,20.8925,VALID,353,VALID,0,
2013-05-04, 00:11:04,VALID,917.122,VALID,0,VALID,97.1986,VALID,0,VALID,20.8925,VALID,353,VALID,0,
2013-05-04, 00:12:04,VALID,917.1,VALID,0,VALID,97.1986,VALID,0,VALID,20.873,VALID,350,VALID,0,
2013-05-04, 00:13:04,VALID,917.048,VALID,0,VALID,97.2138,VALID,0,VALID,20.8535,VALID,350,VALID,0,
2013-05-04, 00:14:04,VALID,917.068,VALID,0,VALID,97.1909,VALID,0,VALID,20.8941,VALID,350,VALID,0,
2013-05-04, 00:15:04,VALID,917.059,VALID,0,VALID,97.2062,VALID,0,VALID,20.8925,VALID,350,VALID,0,
2013-05-04, 00:16:04,VALID,917.044,VALID,0,VALID,97.1986,VALID,0,VALID,20.8925,VALID,350,VALID,0,
2013-05-04, 00:17:04,VALID,917.036,VALID,0,VALID,97.2062,VALID,0,VALID,20.912,VALID,350,VALID,0,
2013-05-04, 00:18:04,VALID,917.016,VALID,0,VALID,97.1986,VALID,0,VALID,20.9136,VALID,350,VALID,0,
2013-05-04, 00:19:04,VALID,917.022,VALID,0,VALID,97.2062,VALID,0,VALID,20.873,VALID,350,VALID,0,
2013-05-04, 00:20:04,VALID,917.02,VALID,0,VALID,97.1986,VALID,0,VALID,20.873,VALID,350,VALID,0,
2013-05-04, 00:21:04,VALID,917.02,VALID,0,VALID,97.2138,VALID,0,VALID,20.873,VALID,350,VALID,0,
2013-05-04, 00:22:04,VALID,917.007,VALID,0,VALID,97.1833,VALID,0,VALID,20.873,VALID,350,VALID,0,
2013-05-04, 00:23:04,VALID,917.005,VALID,0,VALID,97.2062,VALID,0,VALID,20.8519,VALID,350,VALID,0,
2013-05-04, 00:24:04,VALID,917.006,VALID,0,VALID,97.1986,VALID,0,VALID,20.873,VALID,350,VALID,0,
2013-05-04, 00:25:04,VALID,917.002,VALID,0,VALID,97.2062,VALID,0,VALID,20.891,VALID,350,VALID,0,
2013-05-04, 00:26:04,VALID,917.021,VALID,0,VALID,97.2062,VALID,0,VALID,20.8925,VALID,350,VALID,0,
2013-05-04, 00:27:04,VALID,916.981,VALID,0,VALID,97.2062,VALID,0,VALID,20.8925,VALID,350,VALID,0,
2013-05-04, 00:28:04,VALID,916.949,VALID,0,VALID,97.2062,VALID,0,VALID,20.8925,VALID,350,VALID,0,
2013-05-04, 00:29:04,VALID,916.962,VALID,0,VALID,97.2138,VALID,0,VALID,20.8925,VALID,350,VALID,0,
2013-05-04, 00:30:04,VALID,916.954,VALID,0,VALID,97.2062,VALID,0,VALID,20.873,VALID,350,VALID,0,
2013-05-04, 00:31:04,VALID,916.967,VALID,0,VALID,97.1909,VALID,0,VALID,20.873,VALID,350,VALID,0,
2013-05-04, 00:32:04,VALID,916.953,VALID,0,VALID,97.2367,VALID,0,VALID,20.873,VALID,350,VALID,0,
2013-05-04, 00:33:04,VALID,916.932,VALID,0,VALID,97.1909,VALID,0,VALID,20.912,VALID,350,VALID,0,
2013-05-04, 00:34:04,VALID,916.971,VALID,0,VALID,97.2062,VALID,0,VALID,20.891,VALID,350,VALID,0,
2013-05-04, 00:35:04,VALID,916.928,VALID,0,VALID,97.2138,VALID,0,VALID,20.8925,VALID,350,VALID,0,
2013-05-04, 00:36:04,VALID,916.923,VALID,0,VALID,97.2062,VALID,0,VALID,20.912,VALID,351,VALID,0,
2013-05-04, 00:37:04,VALID,916.92,VALID,0,VALID,97.1986,VALID,0,VALID,20.912,VALID,323,VALID,0,
2013-05-04, 00:38:04,VALID,916.936,VALID,0,VALID,97.2214,VALID,0,VALID,20.873,VALID,295,VALID,0,
2013-05-04, 00:39:04,VALID,916.927,VALID,0,VALID,97.2138,VALID,0,VALID,20.873,VALID,359,VALID,0,
2013-05-04, 00:40:04,VALID,916.9,VALID,0,VALID,97.2214,VALID,0,VALID,20.8925,VALID,21,VALID,0,
2013-05-04, 00:41:04,VALID,916.941,VALID,0,VALID,97.2138,VALID,0,VALID,20.912,VALID,21,VALID,0,
2013-05-04, 00:42:04,VALID,916.935,VALID,0,VALID,97.2214,VALID,0,VALID,20.9511,VALID,21,VALID,0,
2013-05-04, 00:43:04,VALID,916.956,VALID,0,VALID,97.2138,VALID,0,VALID,20.9511,VALID,21,VALID,0,
2013-05-04, 00:44:04,VALID,916.945,VALID,0,VALID,97.2138,VALID,0,VALID,20.9316,VALID,21,VALID,0,
2013-05-04, 00:45:04,VALID,916.924,VALID,0,VALID,97.229,VALID,0,VALID,20.9511,VALID,21,VALID,0,
2013-05-04, 00:46:04,VALID,916.919,VALID,0,VALID,97.2138,VALID,0,VALID,20.9527,VALID,21,VALID,0,
2013-05-04, 00:47:04,VALID,916.907,VALID,0,VALID,97.2062,VALID,0,VALID,20.9316,VALID,21,VALID,0,
2013-05-04, 00:48:04,VALID,916.913,VALID,0,VALID,97.2138,VALID,0,VALID,20.9706,VALID,21,VALID,0,
2013-05-04, 00:49:04,VALID,916.866,VALID,0,VALID,97.2138,VALID,0,VALID,20.9917,VALID,21,VALID,0,
2013-05-04, 00:50:04,VALID,916.845,VALID,0,VALID,97.2138,VALID,0,VALID,20.9917,VALID,22,VALID,0,
2013-05-04, 00:51:04,VALID,916.836,VALID,0,VALID,97.2138,VALID,0,VALID,20.9901,VALID,24,VALID,0,
2013-05-04, 00:52:04,VALID,916.828,VALID,0,VALID,97.2062,VALID,0,VALID,20.9901,VALID,357,VALID,0,
2013-05-04, 00:53:04,VALID,916.816,VALID,0,VALID,97.2214,VALID,0,VALID,21.0096,VALID,21,VALID,0,
2013-05-04, 00:54:04,VALID,916.83,VALID,0,VALID,97.2214,VALID,0,VALID,20.9706,VALID,339,VALID,0,
2013-05-04, 00:55:04,VALID,916.833,VALID,0,VALID,97.2138,VALID,0,VALID,20.9706,VALID,12,VALID,0,
2013-05-04, 00:56:04,VALID,916.841,VALID,0,VALID,97.229,VALID,0,VALID,20.9511,VALID,18,VALID,0,
2013-05-04, 00:57:04,VALID,916.849,VALID,0,VALID,97.229,VALID,0,VALID,20.9316,VALID,24,VALID,0,
2013-05-04, 00:58:04,VALID,916.835,VALID,0,VALID,97.2214,VALID,0,VALID,20.9511,VALID,25,VALID,0,
2013-05-04, 00:59:04,VALID,916.848,VALID,0,VALID,97.2138,VALID,0,VALID,20.9316,VALID,25,VALID,0,
2013-05-04, 01:00:04,VALID,916.853,VALID,0,VALID,97.2138,VALID,0,VALID,20.9511,VALID,25,VALID,0,
2013-05-04, 01:01:04,VALID,916.847,VALID,0,VALID,97.2138,VALID,0.107441,VALID,20.9511,VALID,20,VALID,0,
2013-05-04, 01:02:04,VALID,916.819,VALID,0,VALID,97.2214,VALID,0,VALID,20.9722,VALID,321,VALID,0,
2013-05-04, 01:03:04,VALID,916.843,VALID,0,VALID,97.229,VALID,0,VALID,20.9511,VALID,337,VALID,0,
2013-05-04, 01:04:04,VALID,916.834,VALID,0,VALID,97.2214,VALID,0,VALID,20.9511,VALID,338,VALID,0,
2013-05-04, 01:05:04,VALID,916.826,VALID,0,VALID,97.2062,VALID,0,VALID,20.93,VALID,338,VALID,0,
2013-05-04, 01:06:04,VALID,916.825,VALID,0,VALID,97.2138,VALID,0,VALID,20.9511,VALID,20,VALID,0,
2013-05-04, 01:07:04,VALID,916.803,VALID,0,VALID,97.229,VALID,0,VALID,20.9706,VALID,16,VALID,0,
2013-05-04, 01:08:04,VALID,916.776,VALID,0,VALID,97.2214,VALID,0,VALID,20.9105,VALID,24,VALID,0,
2013-05-04, 01:09:04,VALID,916.759,VALID,0,VALID,97.2138,VALID,0,VALID,20.9316,VALID,35,VALID,0,
2013-05-04, 01:10:04,VALID,916.73,VALID,0,VALID,97.229,VALID,0,VALID,20.912,VALID,33,VALID,0,
2013-05-04, 01:11:04,VALID,916.708,VALID,0,VALID,97.2138,VALID,0,VALID,20.9316,VALID,359,VALID,0,
2013-05-04, 01:12:04,VALID,916.678,VALID,0,VALID,97.2062,VALID,0,VALID,20.8925,VALID,350,VALID,0,
2013-05-04, 01:13:04,VALID,916.612,VALID,0,VALID,97.2138,VALID,0,VALID,20.8941,VALID,24,VALID,0,
2013-05-04, 01:14:04,VALID,916.64,VALID,0.2,VALID,97.2443,VALID,0,VALID,20.8746,VALID,20,VALID,0,
2013-05-04, 01:15:04,VALID,916.603,VALID,0,VALID,97.2214,VALID,0,VALID,20.8925,VALID,18,VALID,0,
2013-05-04, 01:16:04,VALID,916.557,VALID,0,VALID,97.2138,VALID,0,VALID,20.9136,VALID,18,VALID,0,
2013-05-04, 01:17:04,VALID,916.557,VALID,0,VALID,97.229,VALID,0,VALID,20.873,VALID,343,VALID,0,
2013-05-04, 01:18:04,VALID,916.515,VALID,0,VALID,97.2443,VALID,0,VALID,20.834,VALID,336,VALID,0,
2013-05-04, 01:19:04,VALID,916.505,VALID,0,VALID,97.2367,VALID,0,VALID,20.8145,VALID,328,VALID,0,
2013-05-04, 01:20:04,VALID,916.512,VALID,0,VALID,97.2443,VALID,0,VALID,20.7966,VALID,343,VALID,0,
2013-05-04, 01:21:04,VALID,916.483,VALID,0,VALID,97.2443,VALID,0,VALID,20.7755,VALID,19,VALID,0,
2013-05-04, 01:22:04,VALID,916.429,VALID,0,VALID,97.2367,VALID,0.107441,VALID,20.795,VALID,17,VALID,0,
2013-05-04, 01:23:04,VALID,916.463,VALID,0,VALID,97.2367,VALID,0,VALID,20.795,INVALID,360,VALID,0,
2013-05-04, 01:24:04,VALID,916.432,VALID,0,VALID,97.2443,VALID,0,VALID,20.795,INVALID,360,VALID,0,
2013-05-04, 01:25:04,VALID,916.441,VALID,0,VALID,97.2519,VALID,0,VALID,20.7755,VALID,40,VALID,0,
2013-05-04, 01:26:04,VALID,916.43,VALID,0,VALID,97.2443,VALID,0.107441,VALID,20.795,VALID,18,VALID,0,
2013-05-04, 01:27:04,VALID,916.428,VALID,0,VALID,97.2672,VALID,0,VALID,20.795,VALID,14,VALID,0,
2013-05-04, 01:28:05,VALID,916.419,VALID,0,VALID,97.2519,VALID,0,VALID,20.795,VALID,312,VALID,0,
2013-05-04, 01:29:05,VALID,916.419,VALID,0,VALID,97.2672,VALID,0,VALID,20.7755,VALID,338,VALID,0,
2013-05-04, 01:30:05,VALID,916.369,VALID,0,VALID,97.2595,VALID,0,VALID,20.756,VALID,25,VALID,0,
2013-05-04, 01:31:05,VALID,916.374,VALID,0,VALID,97.2672,VALID,0,VALID,20.7755,VALID,327,VALID,0,
2013-05-04, 01:32:05,VALID,916.378,VALID,0,VALID,97.2672,VALID,0,VALID,20.756,VALID,4,VALID,0,
2013-05-04, 01:33:05,VALID,916.354,VALID,0,VALID,97.2443,VALID,0,VALID,20.7755,VALID,4,VALID,0,
2013-05-04, 01:34:05,VALID,916.344,VALID,0,VALID,97.2672,VALID,0,VALID,20.7365,VALID,5,VALID,0,
2013-05-04, 01:35:05,VALID,916.349,VALID,0,VALID,97.29,VALID,0,VALID,20.717,VALID,3,VALID,0,
2013-05-04, 01:36:05,VALID,916.328,VALID,0,VALID,97.2519,VALID,0,VALID,20.7381,VALID,3,VALID,0,
2013-05-04, 01:37:05,VALID,916.321,VALID,0,VALID,97.2595,VALID,0,VALID,20.717,VALID,6,VALID,0,
2013-05-04, 01:38:05,VALID,916.298,VALID,0.2,VALID,97.29,VALID,0,VALID,20.6975,VALID,18,VALID,0,
2013-05-04, 01:39:05,VALID,916.297,VALID,0,VALID,97.2672,VALID,0.107441,VALID,20.7365,VALID,8,VALID,0,
2013-05-04, 01:40:05,VALID,916.299,VALID,0,VALID,97.2748,VALID,0,VALID,20.717,VALID,350,VALID,0,
2013-05-04, 01:41:05,VALID,916.293,VALID,0,VALID,97.2672,VALID,0,VALID,20.717,VALID,346,VALID,0,
2013-05-04, 01:42:05,VALID,916.265,VALID,0,VALID,97.2977,VALID,0,VALID,20.717,VALID,355,VALID,0,
2013-05-04, 01:43:05,VALID,916.221,VALID,0,VALID,97.2519,VALID,0,VALID,20.717,VALID,19,VALID,0,
2013-05-04, 01:44:05,VALID,916.217,VALID,0,VALID,97.2672,VALID,0,VALID,20.6975,VALID,359,VALID,0,
2013-05-04, 01:45:05,VALID,916.212,VALID,0,VALID,97.29,VALID,0,VALID,20.6975,VALID,359,VALID,0,
2013-05-04, 01:46:05,VALID,916.195,VALID,0,VALID,97.2824,VALID,0,VALID,20.6975,VALID,359,VALID,0,
2013-05-04, 01:47:05,VALID,916.162,VALID,0,VALID,97.2672,VALID,0,VALID,20.678,VALID,331,VALID,0,
2013-05-04, 01:48:05,VALID,916.157,VALID,0,VALID,97.3053,VALID,0,VALID,20.678,VALID,333,VALID,0,
2013-05-04, 01:49:05,VALID,916.152,VALID,0,VALID,97.29,VALID,0,VALID,20.6975,VALID,333,VALID,0,
2013-05-04, 01:50:05,VALID,916.116,VALID,0,VALID,97.2977,VALID,0,VALID,20.678,VALID,333,VALID,0,
2013-05-04, 01:51:05,VALID,916.136,VALID,0,VALID,97.2748,VALID,0,VALID,20.7185,VALID,350,VALID,0,
2013-05-04, 01:52:05,VALID,916.116,VALID,0,VALID,97.2748,VALID,0,VALID,20.7381,VALID,352,VALID,0,
2013-05-04, 01:53:05,VALID,916.118,VALID,0,VALID,97.2672,VALID,0.107441,VALID,20.7365,VALID,341,VALID,0,
2013-05-04, 01:54:05,VALID,916.091,VALID,0.2,VALID,97.2672,VALID,0,VALID,20.6975,VALID,357,VALID,0,
2013-05-04, 01:55:05,VALID,916.099,VALID,0,VALID,97.2672,VALID,0,VALID,20.678,VALID,356,VALID,0,
2013-05-04, 01:56:05,VALID,916.08,VALID,0,VALID,97.29,VALID,0,VALID,20.6585,VALID,1,VALID,0,
2013-05-04, 01:57:05,VALID,916.089,VALID,0,VALID,97.2748,VALID,0,VALID,20.678,VALID,1,VALID,0,
2013-05-04, 01:58:05,VALID,916.081,VALID,0,VALID,97.2824,VALID,0,VALID,20.66,VALID,356,VALID,0,
2013-05-04, 01:59:05,VALID,916.051,VALID,0,VALID,97.2977,VALID,0,VALID,20.6194,VALID,356,VALID,0,
2013-05-04, 02:00:05,VALID,916.063,VALID,0,VALID,97.2977,VALID,0,VALID,20.5789,VALID,356,VALID,0,
2013-05-04, 02:01:05,VALID,916.089,VALID,0,VALID,97.29,VALID,0,VALID,20.5999,VALID,356,VALID,0,
2013-05-04, 02:02:05,VALID,916.095,VALID,0,VALID,97.29,VALID,0,VALID,20.621,VALID,356,VALID,0,
2013-05-04, 02:03:05,VALID,916.053,VALID,0,VALID,97.3129,VALID,0,VALID,20.6194,VALID,356,VALID,0,
2013-05-04, 02:04:05,VALID,916.056,VALID,0,VALID,97.2977,VALID,0,VALID,20.6194,VALID,356,VALID,0,
2013-05-04, 02:05:05,VALID,916.07,VALID,0,VALID,97.3053,VALID,0,VALID,20.6405,VALID,356,VALID,0,
2013-05-04, 02:06:05,VALID,916.052,VALID,0,VALID,97.2977,VALID,0,VALID,20.6194,VALID,356,VALID,0,
2013-05-04, 02:07:05,VALID,916.038,VALID,0,VALID,97.3053,VALID,0,VALID,20.5999,VALID,356,VALID,0,
2013-05-04, 02:08:05,VALID,916.023,VALID,0,VALID,97.2824,VALID,0,VALID,20.6194,VALID,356,VALID,0,
2013-05-04, 02:09:05,VALID,916.03,VALID,0,VALID,97.2977,VALID,0,VALID,20.6194,VALID,356,VALID,0,
2013-05-04, 02:10:05,VALID,916.025,VALID,0,VALID,97.29,VALID,0,VALID,20.621,VALID,356,VALID,0,
2013-05-04, 02:11:05,VALID,915.996,VALID,0,VALID,97.29,VALID,0,VALID,20.5999,VALID,356,VALID,0,
2013-05-04, 02:12:05,VALID,915.986,VALID,0,VALID,97.29,VALID,0,VALID,20.621,VALID,356,VALID,0,
2013-05-04, 02:13:05,VALID,915.986,VALID,0,VALID,97.29,VALID,0,VALID,20.5789,VALID,356,VALID,0,
2013-05-04, 02:14:05,VALID,915.998,VALID,0,VALID,97.3053,VALID,0,VALID,20.5999,VALID,356,VALID,0,
2013-05-04, 02:15:05,VALID,915.978,VALID,0,VALID,97.3205,VALID,0,VALID,20.5804,VALID,360,VALID,0,
2013-05-04, 02:16:05,VALID,915.944,VALID,0,VALID,97.2977,VALID,0,VALID,20.5804,VALID,360,VALID,0,
2013-05-04, 02:17:05,VALID,915.938,VALID,0,VALID,97.3129,VALID,0,VALID,20.5804,VALID,360,VALID,0,
2013-05-04, 02:18:05,VALID,915.93,VALID,0,VALID,97.2977,VALID,0,VALID,20.5999,VALID,360,VALID,0,
2013-05-04, 02:19:05,VALID,915.906,VALID,0,VALID,97.29,VALID,0,VALID,20.6015,VALID,360,VALID,0,
2013-05-04, 02:20:05,VALID,915.906,VALID,0,VALID,97.2977,VALID,0.107441,VALID,20.6194,VALID,360,VALID,0,
2013-05-04, 02:21:05,VALID,915.876,VALID,0,VALID,97.3281,VALID,0.107441,VALID,20.639,VALID,360,VALID,0,
2013-05-04, 02:22:05,VALID,915.806,VALID,0,VALID,97.2977,VALID,0,VALID,20.6405,VALID,360,VALID,0,
2013-05-04, 02:23:05,VALID,915.8,VALID,0,VALID,97.29,VALID,0,VALID,20.6405,VALID,360,VALID,0,
2013-05-04, 02:24:05,VALID,915.802,VALID,0,VALID,97.29,VALID,0,VALID,20.6405,VALID,360,VALID,0,
2013-05-04, 02:25:05,VALID,915.799,VALID,0,VALID,97.3053,VALID,0,VALID,20.6194,VALID,360,VALID,0,
2013-05-04, 02:26:05,VALID,915.763,VALID,0,VALID,97.29,VALID,0,VALID,20.6194,VALID,360,VALID,0,
2013-05-04, 02:27:05,VALID,915.76,VALID,0,VALID,97.3053,VALID,0,VALID,20.5999,VALID,360,VALID,0,
2013-05-04, 02:28:05,VALID,915.739,VALID,0,VALID,97.2824,VALID,0,VALID,20.5804,VALID,360,VALID,0,
2013-05-04, 02:29:05,VALID,915.72,VALID,0,VALID,97.3205,VALID,0,VALID,20.5804,VALID,360,VALID,0,
2013-05-04, 02:30:05,VALID,915.725,VALID,0,VALID,97.3053,VALID,0,VALID,20.5609,VALID,360,VALID,0,
2013-05-04, 02:31:05,VALID,915.708,VALID,0,VALID,97.2977,VALID,0,VALID,20.5414,VALID,360,VALID,0,
2013-05-04, 02:32:05,VALID,915.695,VALID,0,VALID,97.29,VALID,0,VALID,20.5414,VALID,360,VALID,0,
2013-05-04, 02:33:05,VALID,915.701,VALID,0,VALID,97.3358,VALID,0,VALID,20.5219,VALID,360,VALID,0,
2013-05-04, 02:34:05,VALID,915.639,VALID,0,VALID,97.3129,VALID,0,VALID,20.5625,VALID,360,VALID,0,
2013-05-04, 02:35:05,VALID,915.637,VALID,0,VALID,97.3053,VALID,0,VALID,20.5219,VALID,360,VALID,0,
2013-05-04, 02:36:05,VALID,915.586,VALID,0,VALID,97.3205,VALID,0,VALID,20.5219,VALID,360,VALID,0,
2013-05-04, 02:37:05,VALID,915.617,VALID,0,VALID,97.3205,VALID,0,VALID,20.543,VALID,360,VALID,0,
2013-05-04, 02:38:05,VALID,915.635,VALID,0,VALID,97.3129,VALID,0,VALID,20.543,VALID,360,VALID,0,
2013-05-04, 02:39:05,VALID,915.611,VALID,0,VALID,97.3053,VALID,0,VALID,20.5219,VALID,360,VALID,0,
2013-05-04, 02:40:05,VALID,915.613,VALID,0,VALID,97.2977,VALID,0,VALID,20.5219,VALID,360,VALID,0,
2013-05-04, 02:41:05,VALID,915.604,VALID,0,VALID,97.2977,VALID,0,VALID,20.5219,VALID,360,VALID,0,
2013-05-04, 02:42:05,VALID,915.607,VALID,0,VALID,97.3053,VALID,0,VALID,20.5625,VALID,360,VALID,0,
2013-05-04, 02:43:05,VALID,915.609,VALID,0,VALID,97.2977,VALID,0,VALID,20.582,VALID,360,VALID,0,
2013-05-04, 02:44:05,VALID,915.582,VALID,0,VALID,97.3205,VALID,0,VALID,20.5609,VALID,360,VALID,0,
2013-05-04, 02:45:05,VALID,915.589,VALID,0,VALID,97.2977,VALID,0,VALID,20.5414,VALID,360,VALID,0,
2013-05-04, 02:46:05,VALID,915.574,VALID,0,VALID,97.3053,VALID,0,VALID,20.5219,VALID,360,VALID,0,
2013-05-04, 02:47:05,VALID,915.565,VALID,0,VALID,97.3129,VALID,0,VALID,20.5024,VALID,360,VALID,0,
2013-05-04, 02:48:05,VALID,915.535,VALID,0,VALID,97.3129,VALID,0,VALID,20.504,VALID,360,VALID,0,
2013-05-04, 02:49:05,VALID,915.511,VALID,0,VALID,97.3205,VALID,0,VALID,20.504,VALID,360,VALID,0,
2013-05-04, 02:50:05,VALID,915.454,VALID,0,VALID,97.3053,VALID,0,VALID,20.4845,VALID,113,VALID,0,
2013-05-04, 02:51:05,VALID,915.49,VALID,0,VALID,97.2977,VALID,0,VALID,20.4439,VALID,113,VALID,0,
2013-05-04, 02:52:05,VALID,915.461,VALID,0,VALID,97.3129,VALID,0,VALID,20.4454,VALID,109,VALID,0,
2013-05-04, 02:53:05,VALID,915.445,VALID,0,VALID,97.3358,VALID,0,VALID,20.4244,VALID,105,VALID,0,
2013-05-04, 02:54:05,VALID,915.423,VALID,0,VALID,97.3205,VALID,0,VALID,20.4064,VALID,108,VALID,0,
2013-05-04, 02:55:05,VALID,915.433,VALID,0,VALID,97.3434,VALID,0,VALID,20.3854,VALID,112,VALID,0,
2013-05-04, 02:56:05,VALID,915.403,VALID,0,VALID,97.3434,VALID,0,VALID,20.3854,VALID,112,VALID,0,
2013-05-04, 02:57:05,VALID,915.376,VALID,0,VALID,97.3358,VALID,0,VALID,20.3659,VALID,119,VALID,0,
2013-05-04, 02:58:05,VALID,915.382,VALID,0,VALID,97.3358,VALID,0,VALID,20.3854,VALID,119,VALID,0,
2013-05-04, 02:59:05,VALID,915.361,VALID,0,VALID,97.3434,VALID,0,VALID,20.3854,VALID,119,VALID,0,
2013-05-04, 03:00:05,VALID,915.312,VALID,0,VALID,97.351,VALID,0,VALID,20.4049,VALID,108,VALID,0,
2013-05-04, 03:01:05,VALID,915.311,VALID,0,VALID,97.3358,VALID,0,VALID,20.4064,VALID,118,VALID,0,
2013-05-04, 03:02:05,VALID,915.313,VALID,0,VALID,97.3358,VALID,0,VALID,20.4049,VALID,136,VALID,0,
2013-05-04, 03:03:05,VALID,915.295,VALID,0,VALID,97.3586,VALID,0,VALID,20.4259,VALID,128,VALID,0,
2013-05-04, 03:04:05,VALID,915.292,VALID,0,VALID,97.3434,VALID,0,VALID,20.4049,VALID,131,VALID,0,
2013-05-04, 03:05:05,VALID,915.264,VALID,0,VALID,97.3358,VALID,0,VALID,20.4259,VALID,144,VALID,0,
2013-05-04, 03:06:05,VALID,915.27,VALID,0,VALID,97.3586,VALID,0,VALID,20.4454,VALID,152,VALID,0,
2013-05-04, 03:07:05,VALID,915.259,VALID,0,VALID,97.3358,VALID,0,VALID,20.4454,VALID,149,VALID,0,
2013-05-04, 03:08:05,VALID,915.237,VALID,0,VALID,97.3434,VALID,0,VALID,20.465,VALID,187,VALID,0,
2013-05-04, 03:09:05,VALID,915.232,VALID,0,VALID,97.3205,VALID,0,VALID,20.4439,VALID,172,VALID,0,
2013-05-04, 03:10:05,VALID,915.23,VALID,0,VALID,97.3434,VALID,0,VALID,20.4244,VALID,175,VALID,0,
2013-05-04, 03:11:05,VALID,915.194,VALID,0,VALID,97.3434,VALID,0,VALID,20.4439,VALID,172,VALID,0,
2013-05-04, 03:12:05,VALID,915.172,VALID,0,VALID,97.3358,VALID,0,VALID,20.4259,VALID,167,VALID,0,
2013-05-04, 03:13:05,VALID,915.167,VALID,0,VALID,97.3434,VALID,0,VALID,20.4454,VALID,168,VALID,0,
2013-05-04, 03:14:05,VALID,915.116,VALID,0,VALID,97.3586,VALID,0,VALID,20.4259,VALID,164,VALID,0,
2013-05-04, 03:15:05,VALID,915.139,VALID,0,VALID,97.351,VALID,0,VALID,20.4049,VALID,165,VALID,0,
2013-05-04, 03:16:05,VALID,915.089,VALID,0,VALID,97.3358,VALID,0,VALID,20.4049,VALID,112,VALID,0,
2013-05-04, 03:17:05,VALID,915.067,VALID,0,VALID,97.3434,VALID,0,VALID,20.4049,VALID,136,VALID,0,
2013-05-04, 03:18:05,VALID,915.066,VALID,0,VALID,97.3586,VALID,0,VALID,20.4049,VALID,154,VALID,0,
2013-05-04, 03:19:05,VALID,915.045,VALID,0,VALID,97.351,VALID,0,VALID,20.3854,VALID,144,VALID,0,
2013-05-04, 03:20:05,VALID,915.025,VALID,0,VALID,97.3663,VALID,0,VALID,20.3854,VALID,123,VALID,0,
2013-05-04, 03:21:05,VALID,914.999,VALID,0,VALID,97.3739,VALID,0,VALID,20.3854,VALID,171,VALID,0,
2013-05-04, 03:22:05,VALID,914.997,VALID,0,VALID,97.351,VALID,0,VALID,20.3854,VALID,141,VALID,0,
2013-05-04, 03:23:05,VALID,914.99,VALID,0,VALID,97.351,VALID,0,VALID,20.3854,VALID,167,VALID,0,
2013-05-04, 03:24:05,VALID,914.993,VALID,0,VALID,97.3434,VALID,0,VALID,20.4064,VALID,172,VALID,0,
2013-05-04, 03:25:05,VALID,914.987,VALID,0,VALID,97.3434,VALID,0,VALID,20.4049,VALID,148,VALID,0,
2013-05-04, 03:26:05,VALID,914.968,VALID,0,VALID,97.3586,VALID,0,VALID,20.4049,VALID,159,VALID,0,
2013-05-04, 03:27:05,VALID,914.942,VALID,0,VALID,97.351,VALID,0,VALID,20.4064,VALID,147,VALID,0,
2013-05-04, 03:28:05,VALID,914.901,VALID,0,VALID,97.3358,VALID,0,VALID,20.4064,VALID,150,VALID,0,
2013-05-04, 03:29:05,VALID,914.903,VALID,0,VALID,97.3663,VALID,0,VALID,20.3869,VALID,141,VALID,0,
2013-05-04, 03:30:05,VALID,914.872,VALID,0,VALID,97.351,VALID,0,VALID,20.3854,VALID,140,VALID,0,
2013-05-04, 03:31:05,VALID,914.905,VALID,0,VALID,97.3358,VALID,0,VALID,20.4064,VALID,155,VALID,0,
2013-05-04, 03:32:05,VALID,914.862,VALID,0,VALID,97.3358,VALID,0,VALID,20.4064,VALID,150,VALID,0,
2013-05-04, 03:33:05,VALID,914.833,VALID,0,VALID,97.351,VALID,0,VALID,20.4064,VALID,144,VALID,0,
2013-05-04, 03:34:05,VALID,914.819,VALID,0,VALID,97.351,VALID,0,VALID,20.3854,VALID,164,VALID,0,
2013-05-04, 03:35:05,VALID,914.838,VALID,0,VALID,97.3358,VALID,0,VALID,20.4049,VALID,128,VALID,0,
2013-05-04, 03:36:05,VALID,914.843,VALID,0,VALID,97.3281,VALID,0,VALID,20.4064,VALID,127,VALID,0,
2013-05-04, 03:37:05,VALID,914.827,VALID,0,VALID,97.3358,VALID,0,VALID,20.4049,VALID,111,VALID,0,
2013-05-04, 03:38:05,VALID,914.806,VALID,0,VALID,97.3434,VALID,0,VALID,20.4064,VALID,142,VALID,0,
2013-05-04, 03:39:05,VALID,914.807,VALID,0,VALID,97.3281,VALID,0,VALID,20.4064,VALID,120,VALID,0,
2013-05-04, 03:40:05,VALID,914.812,VALID,0,VALID,97.3205,VALID,0,VALID,20.4064,VALID,131,VALID,0,
2013-05-04, 03:41:05,VALID,914.801,VALID,0,VALID,97.3434,VALID,0,VALID,20.4064,VALID,134,VALID,0,
2013-05-04, 03:42:05,VALID,914.786,VALID,0,VALID,97.3281,VALID,0,VALID,20.3869,VALID,136,VALID,0,
2013-05-04, 03:43:05,VALID,914.783,VALID,0,VALID,97.3281,VALID,0,VALID,20.4259,VALID,146,VALID,0,
2013-05-04, 03:44:05,VALID,914.781,VALID,0,VALID,97.3281,VALID,0,VALID,20.4259,VALID,166,VALID,0,
2013-05-04, 03:45:05,VALID,914.802,VALID,0,VALID,97.3281,VALID,0,VALID,20.4244,VALID,125,VALID,0,
2013-05-04, 03:46:05,VALID,914.77,VALID,0,VALID,97.3129,VALID,0,VALID,20.4439,VALID,122,VALID,0,
2013-05-04, 03:47:05,VALID,914.766,VALID,0,VALID,97.3205,VALID,0,VALID,20.4439,VALID,119,VALID,0,
2013-05-04, 03:48:05,VALID,914.792,VALID,0,VALID,97.3129,VALID,0,VALID,20.4439,VALID,115,VALID,0,
2013-05-04, 03:49:05,VALID,914.771,VALID,0,VALID,97.2977,VALID,0,VALID,20.4439,VALID,122,VALID,0,
2013-05-04, 03:50:05,VALID,914.783,VALID,0,VALID,97.3053,VALID,0,VALID,20.4634,VALID,122,VALID,0,
2013-05-04, 03:51:05,VALID,914.782,VALID,0,VALID,97.2748,VALID,0,VALID,20.5024,VALID,110,VALID,0,
2013-05-04, 03:52:05,VALID,914.714,VALID,0,VALID,97.2519,VALID,0,VALID,20.5625,VALID,99,VALID,0,
2013-05-04, 03:53:05,VALID,914.752,VALID,0,VALID,97.2519,VALID,0,VALID,20.543,VALID,122,VALID,0,
2013-05-04, 03:54:05,VALID,914.716,VALID,0,VALID,97.2519,VALID,0,VALID,20.5414,VALID,132,VALID,0,
2013-05-04, 03:55:05,VALID,914.724,VALID,0,VALID,97.2367,VALID,0,VALID,20.5219,VALID,127,VALID,0,
2013-05-04, 03:56:05,VALID,914.764,VALID,0,VALID,97.2214,VALID,0,VALID,20.5219,VALID,138,VALID,0,
2013-05-04, 03:57:05,VALID,914.709,VALID,0,VALID,97.2138,VALID,0,VALID,20.5414,VALID,110,VALID,0,
2013-05-04, 03:58:05,VALID,914.69,VALID,0,VALID,97.2138,VALID,0,VALID,20.5414,VALID,138,VALID,0,
2013-05-04, 03:59:05,VALID,914.71,VALID,0,VALID,97.1909,VALID,0,VALID,20.5414,VALID,113,VALID,0,
2013-05-04, 04:00:05,VALID,914.741,VALID,0,VALID,97.1986,VALID,0,VALID,20.5414,VALID,120,VALID,0,